Weather History for Frenchville, ME

Change the Weather History Date:

Thursday, February 6, 2014

  Actual Average Record
Temperature  
Mean Temperature 3 °F 10 °F  
Max Temperature 10 °F 19 °F 35 °F (2005)
Min Temperature -5 °F 2 °F -11 °F (2007)
Degree Days  
Heating Degree Days 62    
Month to date heating degree days 321  
Since 1 July heating degree days 5755  
Cooling Degree Days 0    
Month to date cooling degree days 0  
Year to date cooling degree days 0  
Moisture  
Dew Point -6 °F    
Average Humidity 69    
Maximum Humidity 80    
Minimum Humidity 53    
Precipitation  
Precipitation T in 0.02 in 0.16 in (2011)
Month to date precipitation 0.25 0.12  
Year to date precipitation 2.25 1.88  
Sea Level Pressure  
Sea Level Pressure 30.05 in    
Wind  
Wind Speed 9 mph (West)    
Max Wind Speed 18 mph    
Max Gust Speed 23 mph    
Visibility 10 miles    
Events Snow    
T = Trace of Precipitation, MM = Missing Value Source: NWS Daily Summary

Daily Weather History Graph

Daily Weather History Graph

Search for Another Location

Airport:

Trip Planner

Search our weather history database for the weather conditions in past years. The results will help you decide how hot, cold, wet, or windy it might be!

Date:

Astronomy

Feb. 06, 2014 Rise Set
Actual Time 6:52 AM EST 4:43 PM EST
Civil Twilight 6:19 AM EST 5:15 PM EST
Nautical Twilight 5:43 AM EST 5:51 PM EST
Astronomical Twilight 5:07 AM EST 6:27 PM EST
Moon 10:11 AM EST (2/6) 12:03 AM EST (2/6)
Length of Visible Light 10h 55m
Length of Day
9h 50m
Waxing Crescent, 49% of the Moon is Illuminated
Feb 6
Waxing Crescent
Feb 6
First Quarter
Feb 14
Full
Feb 22
Last Quarter
Mar 1
New

Hourly Weather History & Observations

Time (EST) Temp. Windchill Dew Point Humidity Pressure Visibility Wind Dir Wind Speed Gust Speed Precip Events Conditions
12:53 AM 1.0 °F -14.9 °F -5.1 °F 75% 29.96 in 10.0 mi NNW 10.4 mph - N/A   Overcast
1:53 AM 1.0 °F -16.6 °F -4.0 °F 79% 29.98 in 10.0 mi NNW 12.7 mph - N/A   Overcast
2:53 AM 1.0 °F -17.3 °F -5.1 °F 75% 29.99 in 7.0 mi NW 13.8 mph - 0.00 in Snow Light Snow
3:50 AM -2.2 °F -18.0 °F -7.6 °F 78% 29.94 in 10.0 mi NW 9.2 mph - 0.00 in   Partly Cloudy
3:53 AM -2.0 °F -19.6 °F -8.0 °F 76% 30.01 in 10.0 mi NW 11.5 mph - 0.00 in   Partly Cloudy
4:53 AM -4.0 °F -20.2 °F -9.0 °F 79% 30.04 in 10.0 mi NW 9.2 mph - N/A   Clear
5:53 AM -5.1 °F -24.3 °F -9.9 °F 80% 30.05 in 10.0 mi NNW 12.7 mph - N/A   Clear
6:53 AM -5.1 °F -23.5 °F -9.9 °F 80% 30.07 in 10.0 mi NW 11.5 mph - N/A   Clear
7:53 AM -5.1 °F -19.1 °F -11.0 °F 76% 30.11 in 10.0 mi WNW 6.9 mph - N/A   Clear
8:53 AM -4.0 °F -19.0 °F -11.0 °F 72% 30.12 in 10.0 mi WSW 8.1 mph - N/A   Clear
9:53 AM -0.9 °F -14.1 °F -9.9 °F 66% 30.14 in 10.0 mi West 6.9 mph - N/A   Clear
10:53 AM 1.0 °F -11.7 °F -9.0 °F 63% 30.13 in 10.0 mi West 6.9 mph - N/A   Clear
11:53 AM 1.9 °F -10.6 °F -8.0 °F 63% 30.12 in 10.0 mi West 6.9 mph - N/A   Clear
12:53 PM 3.9 °F -8.2 °F -6.0 °F 64% 30.09 in 10.0 mi WNW 6.9 mph - N/A   Clear
1:53 PM 8.1 °F -3.2 °F -5.1 °F 55% 30.07 in 10.0 mi Variable 6.9 mph - N/A   Clear
2:53 PM 9.0 °F -3.2 °F -4.0 °F 56% 30.07 in 10.0 mi WSW 8.1 mph - N/A   Clear
3:53 PM 10.0 °F 0.4 °F -4.0 °F 53% 30.07 in 10.0 mi SW 5.8 mph - N/A   Clear
4:53 PM 7.0 °F -3.3 °F -4.0 °F 61% 30.06 in 10.0 mi SE 5.8 mph - N/A   Clear
5:53 PM 8.1 °F -0.5 °F -4.0 °F 58% 30.06 in 10.0 mi South 4.6 mph - N/A   Partly Cloudy
6:53 PM 5.0 °F -6.9 °F -4.0 °F 66% 30.06 in 10.0 mi SSW 6.9 mph - N/A   Mostly Cloudy
7:53 PM 3.9 °F -11.3 °F -4.0 °F 70% 30.06 in 10.0 mi SSW 10.4 mph - N/A   Scattered Clouds
8:53 PM 3.9 °F -13.0 °F -2.9 °F 73% 30.06 in 10.0 mi SSW 12.7 mph - N/A   Mostly Cloudy
9:53 PM 3.9 °F -13.7 °F -2.9 °F 73% 30.04 in 10.0 mi SW 13.8 mph - N/A   Mostly Cloudy
10:53 PM 3.9 °F -12.2 °F -2.9 °F 73% 30.02 in 10.0 mi WSW 11.5 mph - N/A   Overcast
11:53 PM 3.9 °F -11.3 °F -2.9 °F 73% 30.03 in 10.0 mi WSW 10.4 mph - N/A   Overcast